Stefansson Isl, Nunavut

1:46 PM MST on February 27, 2017 (GMT -0700)
Stefansson Island

Weather History for CXSE - August, 2013

Change the Weather History Date:

Saturday, August 3, 2013

  Actual Average Record
Temperature  
Mean Temperature 40 °F -  
Max Temperature 50 °F - - ()
Min Temperature 29 °F - - ()
Degree Days  
Heating Degree Days 26    
Moisture  
Dew Point 36 °F    
Average Humidity 83    
Maximum Humidity 99    
Minimum Humidity 69    
Precipitation  
Precipitation 0.00 in - - ()
Sea Level Pressure  
Sea Level Pressure 30.10 in    
Wind  
Wind Speed 9 mph ()    
Max Wind Speed 21 mph    
Max Gust Speed -    
T = Trace of Precipitation, MM = Missing Value Source: Averaged Metar Reports

Daily Weather History Graph

Daily Weather History Graph

Search for Another Location

Airport or City:

Trip Planner

Search our weather history database for the weather conditions in past years. The results will help you decide how hot, cold, wet, or windy it might be!

Date:

Astronomy

Dec. 31, 1969 Rise Set
Actual Time Sun does not rise Sun does not rise
Civil Twilight Sun does not rise Sun does not rise
Nautical Twilight Sun does not rise Sun does not rise
Astronomical Twilight Sun does not rise Sun does not rise
Moon No Moon Rise No Moon Set
Length of Visible Light 24h 00m
Length of Day
24h 00m
Waning Crescent, 9% of the Moon is Illuminated
Aug 3
Waning Crescent
Aug 6
New
Aug 14
First Quarter
Aug 20
Full
Aug 28
Last Quarter

Hourly Weather History & Observations

Time (MDT) Temp. Windchill Dew Point Humidity Pressure Visibility Wind Dir Wind Speed Gust Speed Precip Events Conditions
12:00 AM 29 °F - 29 °F 99% 30.16 in - NNW 2.3 mph - -  
12:00 AM 29.3 °F - 28.8 °F 98% 30.16 in - NNW 2.3 mph - N/A   Unknown
1:00 AM 29.3 °F - 28.8 °F 98% 30.16 in - NE 2.3 mph - N/A   Unknown
3:00 AM 29.3 °F 23.2 °F 28.8 °F 98% 30.16 in - East 5.8 mph - N/A   Unknown
4:00 AM 30.2 °F 25.4 °F 29.7 °F 98% 30.15 in - East 4.6 mph - N/A   Unknown
5:00 AM 34.3 °F 28.4 °F 31.6 °F 90% 30.15 in - SSW 6.9 mph - N/A   Unknown
6:00 AM 35 °F - 32 °F 83% 30.15 in - SSW 11.5 mph - -  
6:00 AM 34.7 °F 26.4 °F 31.6 °F 89% 30.15 in - SSW 11.5 mph - N/A   Unknown
7:00 AM 35.6 °F 26.6 °F 31.3 °F 84% 30.14 in - South 13.8 mph - N/A   Unknown
8:00 AM 37.6 °F 30.0 °F 33.6 °F 86% 30.13 in - South 11.5 mph - N/A   Unknown
9:00 AM 38.1 °F 29.5 °F 34.0 °F 85% 30.12 in - SSW 15.0 mph - N/A   Unknown
10:00 AM 40.3 °F 32.2 °F 35.1 °F 82% 30.11 in - South 15.0 mph - N/A   Unknown
11:00 AM 42.1 °F 33.3 °F 36.3 °F 80% 30.10 in - South 19.6 mph - N/A   Unknown
12:00 PM 44 °F - 38 °F 71%  in - SSW 20.7 mph - -  
12:00 PM 43.7 °F 35.2 °F 37.8 °F 80% - - SSW 20.7 mph - N/A   Unknown
1:00 PM 45.3 °F 37.8 °F 39.0 °F 79% 30.09 in - South 18.4 mph - N/A   Unknown
2:00 PM 46.2 °F 38.7 °F 39.9 °F 79% 30.07 in - SSW 19.6 mph - N/A   Unknown
3:00 PM 46.9 °F - 40.5 °F 78% 30.07 in - SSW 15.0 mph - N/A   Unknown
4:00 PM 48.4 °F - 40.5 °F 74% 30.07 in - South 17.3 mph - N/A   Unknown
5:00 PM 49.3 °F - 41.0 °F 73% 30.07 in - SSW 16.1 mph - N/A   Unknown
6:00 PM 49 °F - 42 °F 69% 30.06 in - South 12.7 mph - -  
6:00 PM 49.3 °F - 42.1 °F 76% 30.06 in - South 12.7 mph - N/A   Unknown
7:00 PM 49.5 °F - 42.1 °F 76% 30.06 in - SSW 15.0 mph - N/A   Unknown
8:00 PM 50.2 °F - 43.2 °F 77% 30.05 in - SSW 15.0 mph - N/A   Unknown
9:00 PM 48.6 °F - 42.6 °F 80% 30.04 in - SSW 11.5 mph - N/A   Unknown
10:00 PM 47.1 °F - 41.7 °F 81% 30.05 in - South 8.1 mph - N/A   Unknown
11:00 PM 46.0 °F 40.2 °F 41.0 °F 83% 30.05 in - SSW 12.7 mph - N/A   Unknown